Location: Spruce Knob
(38.6995°N, 79.5330°W)
Time: 19:58:53
(UTC-05:00)

ISS - Visible Passes

Search period start: 26 November 2022 00:00
Search period end: 06 December 2022 00:00
Orbit: 411 x 421 km, 51.6° (Epoch: 26 November)

Date Brightness Start Highest point End Pass type
(mag) Time Alt. Az. Time Alt. Az. Time Alt. Az.
30 Nov -1.0 18:53:21 10° NNW 18:53:37 11° NNW 18:53:37 11° NNW visible
01 Dec -1.7 18:04:58 10° NNW 18:06:50 14° NNE 18:07:01 14° NNE visible
02 Dec -1.7 18:52:11 10° NW 18:53:25 19° NNW 18:53:25 19° NNW visible
03 Dec -2.5 18:03:38 10° NNW 18:06:25 24° NNE 18:07:02 23° NE visible
04 Dec -3.0 18:51:12 10° NW 18:53:46 50° WNW 18:53:46 50° WNW visible
05 Dec -3.7 18:02:25 10° NW 18:05:42 57° NE 18:07:50 19° ESE visible
05 Dec -0.3 19:40:20 10° W 19:40:48 12° WSW 19:40:48 12° WSW visible
